This demonstration page uses our WeatherBlox Daily Observations layout. Learn more.

Left ArrowRight Arrow

Hourly Observations for April 27, 2017

Temp ( °F °C ) Dew Point ( °F °C ) Humidity (%) Winds ( mph kmh ) Pressure ( in mb ) Visibility ( mi km ) Precip ( " mm )
12:59 am 00:59 Mostly Clear 64 17.8 60 15.6 87 87 S 6 9 29.85 1011 10 16 0.00 0.00
1:59 am 01:59 Mostly Clear 64 17.8 61 16.1 90 90 S 7 11 29.85 1011 10 16 0.00 0.00
2:59 am 02:59 Mostly Clear 66 18.9 63 17.2 90 90 S 7 11 29.84 1011 10 16 0.00 0.00
3:59 am 03:59 Mostly Clear 66 18.9 63 17.2 90 90 S 7 11 29.84 1011 10 16 0.00 0.00
4:59 am 04:59 Partly Cloudy 67 19.4 63 17.2 87 87 SSW 8 13 29.85 1011 10 16 0.00 0.00
5:59 am 05:59 Partly Cloudy 66 18.9 62 16.7 87 87 SSW 9 15 29.87 1012 10 16 0.00 0.00
6:52 am 06:52 Mostly Sunny 60 15.6 60 15.6 100 100 SE 3 6 29.84 1010 10 16 0.00 0.00
6:59 am 06:59 Partly Cloudy 66 18.9 61 16.1 84 84 SSW 9 15 29.89 1012 9 14 0.00 0.00
7:59 am 07:59 Mostly Sunny 68 20 61 16.1 78 78 SW 10 17 29.91 1013 10 16 0.00 0.00
8:59 am 08:59 Partly Cloudy 71 21.7 62 16.7 73 73 SSW 10 17 29.91 1013 10 16 0.00 0.00
9:59 am 09:59 Partly Cloudy 75 23.9 61 16.1 62 62 SW 9 15 29.92 1013 10 16 0.00 0.00
10:59 am 10:59 Partly Cloudy 78 25.6 59 15 52 52 SW 13 20 29.92 1013 10 16 0.00 0.00
11:59 am 11:59 Partly Cloudy 81 27.2 57 13.9 44 44 SW 15 24 29.91 1013 10 16 0.00 0.00
12:59 pm 12:59 Partly Cloudy 82 27.8 57 13.9 42 42 SSW 12 19 29.88 1012 10 16 0.00 0.00
1:59 pm 13:59 Partly Cloudy 83 28.3 57 13.9 41 41 SSW 12 19 29.86 1011 10 16 0.00 0.00
2:59 pm 14:59 Partly Cloudy 84 28.9 54 12.2 36 36 SW 15 24 29.85 1011 10 16 0.00 0.00
3:59 pm 15:59 Partly Cloudy 84 28.9 57 13.9 40 40 SW 15 24 29.84 1011 10 16 0.00 0.00
4:59 pm 16:59 Mostly Cloudy 82 27.8 57 13.9 42 42 SW 10 17 29.84 1010 10 16 0.00 0.00
5:59 pm 17:59 Partly Cloudy 83 28.3 57 13.9 41 41 SW 12 19 29.85 1011 9 14 0.00 0.00
6:59 pm 18:59 Mostly Cloudy 80 26.7 57 13.9 45 45 SSW 7 11 29.85 1011 9 14 0.00 0.00
7:59 pm 19:59 Mostly Cloudy 78 25.6 58 14.4 50 50 SW 8 13 29.86 1011 9 14 0.00 0.00
8:59 pm 20:59 Mostly Cloudy 75 23.9 58 14.4 55 55 SSW 6 9 29.87 1011 9 14 0.00 0.00
9:59 pm 21:59 Mostly Cloudy 75 23.9 61 16.1 62 62 SSW 10 17 29.90 1013 10 16 0.00 0.00
10:59 pm 22:59 Mostly Cloudy 74 23.3 61 16.1 64 64 SSW 10 17 29.91 1013 10 16 0.00 0.00
11:59 pm 23:59 Cloudy 73 22.8 62 16.7 69 69 SSW 10 17 29.93 1014 10 16 0.00 0.00

Powered by AerisWeather